FWS9458 Weather Reports


Display with metric or nautical units.
time (UTC)temp
F
wind
direction
speed
MPH
gust
MPH
rain 1hr
in
rain 24hr
in
rain mn
in
humidity
%
barometer
mb
20260508111204 52 23 1.0 7.0 0.02 0.13 0.13 90 1012.3
20260508110903 52 248 1.0 13.0 0.02 0.13 0.13 90 1012.0
20260508110604 52 218 0.0 21.0 0.02 0.13 0.13 89 1012.0
20260508110304 51 226 2.0 23.0 0.02 0.13 0.13 86 1012.1
20260508110005 50 223 7.0 23.0 0.02 0.13 0.13 85 1012.1
20260508105703 52 230 10.0 23.0 0.01 0.12 0.12 80 1012.3
20260508105404 54 240 12.0 20.0 0.00 0.11 0.11 74 1012.1
20260508104804 55 250 2.0 9.0 0.00 0.11 0.11 71 1011.9
20260508104505 55 258 4.0 9.0 0.00 0.11 0.11 70 1011.6
20260508104204 56 264 5.0 9.0 0.00 0.11 0.11 66 1011.7
20260508103904 57 262 2.0 9.0 0.00 0.11 0.11 69 1011.8
20260508103604 56 276 4.0 9.0 0.00 0.11 0.11 68 1011.7
20260508103304 58 264 4.0 9.0 0.00 0.11 0.11 65 1011.5
20260508103005 58 258 2.0 9.0 0.00 0.11 0.11 67 1011.7
20260508102703 56 245 6.0 9.0 0.00 0.11 0.11 70 1011.7
20260508102404 57 244 4.0 8.0 0.00 0.11 0.11 70 1011.7
20260508102104 56 231 3.0 8.0 0.00 0.11 0.11 69 1011.7
20260508101804 58 341 2.0 4.0 0.00 0.11 0.11 67 1011.6
20260508101505 59 348 2.0 4.0 0.00 0.11 0.11 65 1011.5
20260508101204 59 297 1.0 4.0 0.00 0.11 0.11 67 1011.5
20260508100904 59 270 0.0 4.0 0.00 0.11 0.11 68 1011.7
20260508100604 58 246 0.0 4.0 0.00 0.11 0.11 72 1011.6
20260508100303 56 235 2.0 4.0 0.00 0.11 0.11 72 1011.6
20260508100004 56 192 2.0 4.0 0.00 0.11 0.11 71 1011.7
20260508095704 58 238 0.0 2.0 0.00 0.11 0.11 68 1011.7
20260508095104 58 227 0.0 2.0 0.00 0.11 0.11 67 1011.6
20260508094804 58 294 0.0 2.0 0.00 0.11 0.11 65 1011.5
20260508094204 58 249 1.0 4.0 0.00 0.11 0.11 65 1011.4
20260508093904 58 227 1.0 4.0 0.00 0.11 0.11 65 1011.4
20260508093604 57 268 2.0 4.0 0.00 0.11 0.11 65 1011.6
20260508093304 60 49 1.0 4.0 0.00 0.11 0.11 64 1011.5
20260508093004 59 51 0.0 4.0 0.00 0.11 0.11 64 1011.4
20260508092704 60 210 1.0 4.0 0.00 0.11 0.11 60 1011.4
20260508092403 60 239 0.0 4.0 0.00 0.11 0.11 64 1011.2
20260508092104 58 238 2.0 4.0 0.00 0.11 0.11 62 1011.4
20260508091804 57 258 2.0 4.0 0.00 0.11 0.11 67 1011.4
20260508091504 56 253 2.0 4.0 0.00 0.11 0.11 67 1011.4
20260508091203 58 228 1.0 7.0 0.00 0.11 0.11 69 1011.6
20260508090611 56 230 2.0 7.0 0.00 0.11 0.11 71 1011.4
20260508090303 55 225 5.0 7.0 0.00 0.11 0.11 71 1011.3
20260508090005 55 243 4.0 6.0 0.00 0.11 0.11 74 1011.4
20260508085704 54 235 3.0 6.0 0.00 0.11 0.11 77 1011.4
20260508085104 53 234 2.0 6.0 0.00 0.11 0.11 80 1011.3
20260508084803 54 240 1.0 6.0 0.00 0.11 0.11 86 1011.4
20260508084505 53 235 2.0 6.0 0.00 0.11 0.11 87 1011.4
20260508084204 52 230 4.0 6.0 0.00 0.11 0.11 89 1011.3
20260508083903 53 227 2.0 7.0 0.00 0.11 0.11 91 1011.5
20260508083604 51 224 3.0 9.0 0.00 0.11 0.11 92 1011.4
20260508083304 51 225 4.0 9.0 0.00 0.11 0.11 93 1011.1
20260508083005 51 233 3.0 9.0 0.00 0.11 0.11 95 1011.5
20260508082704 51 232 5.0 9.0 0.00 0.11 0.11 96 1011.3
20260508082104 52 242 3.0 4.0 0.00 0.11 0.11 97 1011.3
20260508081803 53 254 0.0 2.0 0.00 0.11 0.11 97 1011.2
20260508081505 53 259 0.0 2.0 0.00 0.11 0.11 97 1011.0
20260508081204 52 261 0.0 2.0 0.00 0.11 0.11 97 1011.1
20260508080904 52 261 0.0 2.0 0.00 0.11 0.11 97 1010.9
20260508080603 52 264 1.0 2.0 0.00 0.11 0.11 98 1011.2
20260508080304 53 0 0.0 0.0 0.00 0.11 0.11 98 1010.9
20260508080004 52 225 0.0 2.0 0.00 0.11 0.11 98 1011.1
20260508075703 51 225 0.0 2.0 0.00 0.11 0.11 98 1011.2
20260508075404 51 224 0.0 2.0 0.00 0.11 0.11 98 1011.1
20260508075104 50 233 2.0 2.0 0.00 0.11 0.11 98 1010.9
20260508074504 51 226 1.0 2.0 0.00 0.11 0.11 99 1010.9
20260508074204 50 230 1.0 2.0 0.00 0.11 0.11 99 1011.1
20260508073604 49 242 2.0 2.0 0.00 0.11 0.11 99 1011.1
20260508073304 50 237 0.0 2.0 0.00 0.11 0.11 99 1011.1
20260508073004 49 242 0.0 2.0 0.00 0.11 0.11 99 1011.0
20260508072703 49 248 1.0 2.0 0.00 0.11 0.11 99 1010.9
20260508072404 49 248 1.0 2.0 0.00 0.11 0.11 99 1011.1
20260508072104 49 266 0.0 2.0 0.00 0.11 0.11 99 1011.2
20260508071804 50 255 0.0 4.0 0.00 0.11 0.11 99 1011.0
20260508071504 49 248 0.0 4.0 0.00 0.11 0.11 99 1010.9
20260508071204 49 249 0.0 4.0 0.00 0.11 0.11 99 1011.1
20260508070604 49 249 0.0 6.0 0.00 0.11 0.11 99 1011.0
20260508070005 49 265 3.0 7.0 0.00 0.11 0.11 99 1011.1
20260508065703 49 262 2.0 7.0 0.00 0.11 0.11 99 1010.9
20260508065404 49 261 4.0 7.0 0.00 0.11 0.11 99 1010.9
20260508065104 50 254 2.0 7.0 0.00 0.11 0.11 99 1011.0
20260508064803 49 258 4.0 7.0 0.00 0.11 0.11 99 1010.8
20260508064504 50 259 2.0 6.0 0.00 0.11 0.11 99 1010.8
20260508064204 50 259 0.0 4.0 0.00 0.11 0.11 99 1010.8
20260508063304 50 258 2.0 4.0 0.01 0.11 0.11 99 1010.7
20260508063004 49 248 2.0 4.0 0.01 0.11 0.11 99 1010.5
20260508062704 49 247 2.0 4.0 0.01 0.11 0.11 99 1010.6
20260508062403 49 241 2.0 4.0 0.01 0.11 0.11 99 1010.5
20260508062104 49 234 2.0 4.0 0.01 0.11 0.11 99 1010.4
20260508061804 49 233 2.0 4.0 0.01 0.11 0.11 99 1010.5
20260508060304 49 192 2.0 4.0 0.01 0.11 0.11 99 1010.3
20260508060004 49 213 3.0 4.0 0.01 0.11 0.11 99 1010.4
20260508055704 49 5 2.0 4.0 0.01 0.11 0.11 99 1010.2
20260508055403 49 8 0.0 6.0 0.01 0.11 0.11 98 1010.0
20260508055104 49 16 2.0 6.0 0.01 0.11 0.11 98 1009.8
20260508054804 49 40 3.0 9.0 0.01 0.11 0.11 98 1010.0
20260508054504 49 98 4.0 11.0 0.01 0.11 0.11 98 1010.1
20260508054203 49 135 3.0 11.0 0.01 0.11 0.11 98 1010.1
20260508053904 49 158 5.0 11.0 0.00 0.09 0.09 98 1010.2
20260508053303 49 158 3.0 4.0 0.00 0.09 0.09 98 1010.3
20260508052704 49 0 0.0 0.0 0.00 0.09 0.09 98 1010.0
20260508052403 49 0 0.0 0.0 0.00 0.09 0.09 98 1010.1
20260508052104 49 0 0.0 0.0 0.00 0.09 0.09 98 1010.0
20260508051804 49 90 0.0 2.0 0.00 0.09 0.09 98 1010.0
20260508051504 49 107 0.0 4.0 0.00 0.09 0.09 98 1009.7
20260508051203 49 129 0.0 4.0 0.00 0.09 0.09 98 1009.8
20260508050904 49 135 1.0 4.0 0.00 0.09 0.09 98 1009.8
20260508050604 49 147 2.0 4.0 0.00 0.09 0.09 98 1009.6
20260508050303 49 158 2.0 2.0 0.02 0.09 0.09 98 1009.7
20260508050004 49 0 0.0 0.0 0.04 0.09 0.09 98 1009.7
20260508045704 49 0 0.0 0.0 0.04 0.09 0.09 98 1009.7
20260508045403 49 0 0.0 0.0 0.04 0.09 0.09 98 1009.8
20260508045104 49 1 0.0 2.0 0.04 0.09 0.09 98 1009.6
20260508044804 49 1 0.0 2.0 0.04 0.09 0.09 98 1009.5
20260508044505 49 26 0.0 2.0 0.04 0.09 0.09 98 1009.7
20260508044203 49 61 1.0 2.0 0.04 0.09 0.09 98 1009.8
20260508043904 49 133 1.0 4.0 0.04 0.09 0.09 98 1009.9
20260508043604 49 143 1.0 4.0 0.04 0.09 0.09 98 1009.9
20260508043303 49 117 1.0 4.0 0.05 0.09 0.09 98 1009.9
20260508043004 49 71 4.0 4.0 0.05 0.09 0.09 98 1009.7
20260508042704 49 44 2.0 4.0 0.05 0.09 0.09 98 1009.8
20260508042404 49 38 3.0 4.0 0.05 0.09 0.09 98 1009.6
20260508042103 49 33 3.0 4.0 0.05 0.09 0.09 97 1009.8
20260508041804 49 0 0.0 0.0 0.05 0.09 0.09 97 1009.8
20260508041504 49 0 0.0 0.0 0.05 0.09 0.09 97 1010.2
20260508040903 49 165 0.0 7.0 0.05 0.09 0.09 97 1010.0
20260508040604 49 166 0.0 7.0 0.04 0.08 0.08 97 1010.0
20260508040303 49 170 0.0 7.0 0.01 0.06 0.06 97 1010.1
20260508040004 49 171 4.0 7.0 0.01 0.06 0.06 97 1010.7
20260508035404 49 0 0.0 0.0 0.01 0.06 0.06 97 1009.7
20260508035103 49 23 0.0 2.0 0.01 0.06 0.06 97 1009.6
20260508034804 50 331 0.0 2.0 0.01 0.06 0.06 97 1009.7
20260508034504 50 289 0.0 2.0 0.01 0.06 0.06 97 1009.7
20260508034203 50 174 0.0 7.0 0.01 0.06 0.06 97 1009.7
20260508033904 49 165 2.0 7.0 0.04 0.06 0.06 97 1009.9
20260508033604 50 159 0.0 7.0 0.06 0.06 0.06 97 1009.9
20260508033004 50 158 0.0 4.0 0.05 0.05 0.05 97 1009.7
20260508032703 50 161 2.0 4.0 0.05 0.05 0.05 97 1009.8
20260508032404 50 175 3.0 4.0 0.05 0.05 0.05 96 1009.6
20260508032104 50 217 2.0 2.0 0.05 0.05 0.05 96 1009.7
20260508031803 50 259 0.0 2.0 0.05 0.05 0.05 96 1009.5
20260508031504 50 242 1.0 2.0 0.05 0.05 0.05 96 1009.5
20260508031204 50 241 0.0 2.0 0.05 0.05 0.05 96 1009.6
20260508030904 50 223 1.0 2.0 0.05 0.05 0.05 96 1009.5
20260508030603 50 225 1.0 2.0 0.05 0.05 0.05 95 1009.9
20260508030304 50 0 0.0 0.0 0.05 0.05 0.05 95 1009.8
20260508030004 50 0 0.0 0.0 0.05 0.05 0.05 95 1009.9
20260508025703 50 0 0.0 0.0 0.05 0.05 0.05 95 1009.7
20260508025404 50 0 0.0 0.0 0.05 0.05 0.05 95 1009.9
20260508025104 50 0 0.0 0.0 0.05 0.05 0.05 94 1009.7
20260508024803 50 170 0.0 2.0 0.05 0.05 0.05 94 1009.8
20260508024504 50 172 0.0 2.0 0.05 0.05 0.05 94 1009.8
20260508024203 51 87 0.0 2.0 0.05 0.05 0.05 94 1009.9
20260508023904 51 15 2.0 4.0 0.02 0.02 0.02 93 1010.1
20260508023304 50 10 2.0 4.0 0.00 0.00 0.00 93 1009.8
20260508022703 51 349 0.0 2.0 0.00 0.00 0.00 93 1009.9
20260508022103 51 353 0.0 2.0 0.00 0.00 0.00 93 1010.2
20260508021203 51 0 0.0 0.0 0.00 0.00 0.00 93 1010.3
20260508020604 51 0 0.0 0.0 0.00 0.00 0.00 92 1010.1
20260508020303 51 35 0.0 4.0 0.00 0.00 0.00 92 1010.1
20260508020004 50 19 0.0 4.0 0.00 0.00 0.00 92 1010.0
20260508015704 50 10 0.0 4.0 0.00 0.00 0.00 92 1010.4
20260508015405 50 4 1.0 4.0 0.00 0.00 0.00 92 1010.3
20260508015104 50 4 2.0 4.0 0.00 0.00 0.00 92 1010.2
20260508014505 51 18 0.0 2.0 0.00 0.00 0.00 91 1010.6
20260508014205 51 22 1.0 2.0 0.00 0.00 0.00 91 1010.5
20260508013904 51 23 0.0 2.0 0.00 0.00 0.00 90 1010.6
20260508013605 51 23 0.0 2.0 0.00 0.00 0.00 90 1010.5
20260508013005 51 0 0.0 0.0 0.00 0.00 0.00 89 1010.7
20260508012705 51 0 0.0 0.0 0.00 0.00 0.00 88 1010.5
20260508012405 51 0 0.0 0.0 0.00 0.00 0.00 88 1010.9
20260508012105 51 158 0.0 4.0 0.00 0.00 0.00 89 1010.6
20260508011805 51 158 0.0 4.0 0.00 0.00 0.00 88 1010.6
20260508011505 51 158 0.0 4.0 0.00 0.00 0.00 88 1010.7
20260508011205 52 39 2.0 4.0 0.00 0.00 0.00 87 1010.6
20260508010905 52 21 0.0 4.0 0.00 0.00 0.00 86 1010.9
20260508010604 52 19 0.0 4.0 0.00 0.00 0.00 84 1010.7
20260508010305 52 21 2.0 4.0 0.00 0.00 0.00 83 1010.5
20260508010005 52 13 2.0 4.0 0.00 0.00 0.00 84 1010.7
20260508005705 52 12 1.0 4.0 0.00 0.00 0.00 85 1010.9
20260508005404 51 14 1.0 4.0 0.00 0.00 0.00 86 1010.6
20260508005104 51 17 2.0 4.0 0.00 0.00 0.00 87 1010.9
20260508004805 51 0 0.0 0.0 0.00 0.00 0.00 87 1010.8
20260508004505 51 0 0.0 0.0 0.00 0.00 0.00 87 1010.9
20260508004205 51 0 0.0 0.0 0.00 0.00 0.00 86 1011.1
20260508003904 52 0 0.0 0.0 0.00 0.00 0.00 86 1010.9
20260508003605 52 0 0.0 0.0 0.00 0.00 0.00 85 1011.0
20260508003305 52 0 0.0 0.0 0.00 0.00 0.00 84 1011.1
20260508003006 52 0 0.0 0.0 0.00 0.00 0.00 83 1010.8
20260508002704 52 0 0.0 0.0 0.00 0.00 0.00 84 1010.7
20260508002405 52 0 0.0 0.0 0.00 0.00 0.00 84 1010.8
20260508002104 52 0 0.0 0.0 0.00 0.00 0.00 84 1011.0
20260508001805 52 0 0.0 0.0 0.00 0.00 0.00 84 1011.0
20260508001505 52 0 0.0 0.0 0.00 0.00 0.00 84 1010.9
20260508000604 52 0 0.0 0.0 0.00 0.00 0.00 82 1010.7
20260508000305 52 0 0.0 0.0 0.00 0.00 0.00 82 1010.8
20260508000005 52 0 0.0 0.0 0.00 0.00 0.00 82 1010.9
20260507235705 53 0 0.0 0.0 0.00 0.00 0.00 81 1010.8
20260507235105 52 0 0.0 0.0 0.00 0.00 0.00 82 1011.0
20260507234505 52 0 0.0 0.0 0.00 0.00 0.00 82 1011.0
20260507233604 52 0 0.0 0.0 0.00 0.00 0.00 84 1011.1
20260507233305 52 337 0.0 2.0 0.00 0.00 0.00 84 1011.0
20260507232704 52 337 0.0 2.0 0.00 0.00 0.00 82 1011.2
20260507232405 53 90 0.0 2.0 0.00 0.00 0.00 81 1011.3
20260507232104 53 90 0.0 2.0 0.00 0.00 0.00 81 1011.3
20260507231804 52 90 0.0 2.0 0.00 0.00 0.00 81 1011.3
20260507231505 52 90 0.0 2.0 0.00 0.00 0.00 82 1011.1
20260507231205 52 90 2.0 2.0 0.00 0.00 0.00 82 1011.3
20260507230904 52 90 2.0 2.0 0.00 0.00 0.00 82 1011.2
20260507230605 52 181 0.0 4.0 0.00 0.00 0.00 83 1011.2
20260507230304 52 181 0.0 4.0 0.00 0.00 0.00 83 1011.2
20260507230008 52 181 0.0 4.0 0.00 0.00 0.00 82 1011.3
20260507225704 52 192 3.0 4.0 0.00 0.00 0.00 82 1011.5
20260507225104 52 0 0.0 0.0 0.00 0.00 0.00 83 1011.3
20260507224805 52 0 0.0 0.0 0.00 0.00 0.00 84 1011.1
20260507224505 52 112 0.0 2.0 0.00 0.00 0.00 84 1011.2
20260507224204 52 92 0.0 6.0 0.00 0.00 0.00 84 1011.2
20260507223905 52 89 0.0 6.0 0.00 0.00 0.00 83 1011.2
20260507223305 52 85 3.0 6.0 0.00 0.00 0.00 81 1010.9
20260507223006 53 0 0.0 0.0 0.00 0.00 0.00 81 1011.3
20260507222704 53 0 0.0 0.0 0.00 0.00 0.00 80 1011.2
20260507222405 53 0 0.0 0.0 0.00 0.00 0.00 81 1011.3
20260507222105 52 0 0.0 0.0 0.00 0.00 0.00 81 1011.4
20260507221804 52 224 0.0 2.0 0.00 0.00 0.00 81 1011.5
20260507221205 52 226 0.0 2.0 0.00 0.00 0.00 81 1011.4
20260507220905 52 234 1.0 2.0 0.00 0.00 0.00 81 1011.4
20260507220604 52 238 2.0 2.0 0.00 0.00 0.00 81 1011.4
20260507220305 53 252 1.0 4.0 0.00 0.00 0.00 81 1011.4
20260507220005 53 251 2.0 4.0 0.00 0.00 0.00 81 1011.4
20260507215705 53 255 2.0 4.0 0.00 0.00 0.00 81 1011.4
20260507215404 53 68 2.0 4.0 0.00 0.00 0.00 80 1011.7
20260507215104 53 72 0.0 4.0 0.00 0.00 0.00 79 1011.4
20260507214805 53 69 3.0 6.0 0.00 0.00 0.00 79 1011.1
20260507214505 53 75 4.0 6.0 0.00 0.00 0.00 80 1011.5
20260507214205 53 79 4.0 6.0 0.00 0.00 0.00 80 1011.6
20260507213904 53 87 4.0 4.0 0.00 0.00 0.00 79 1011.5
20260507213605 53 90 3.0 4.0 0.00 0.00 0.00 78 1011.6
20260507213305 53 0 0.0 0.0 0.00 0.00 0.00 79 1011.5
20260507213005 53 0 0.0 0.0 0.00 0.00 0.00 79 1011.3
20260507212704 53 225 0.0 2.0 0.00 0.00 0.00 79 1011.6
20260507212405 53 225 0.0 2.0 0.00 0.00 0.00 79 1011.5
20260507212104 53 245 0.0 2.0 0.00 0.00 0.00 79 1011.6
20260507211804 54 248 0.0 6.0 0.00 0.00 0.00 78 1011.5
20260507211505 54 240 0.0 6.0 0.00 0.00 0.00 78 1011.9
20260507211205 54 243 0.0 6.0 0.00 0.00 0.00 78 1011.6
20260507210904 54 237 3.0 6.0 0.00 0.00 0.00 77 1011.5
20260507210305 54 234 2.0 6.0 0.00 0.00 0.00 76 1011.6
20260507205704 55 245 2.0 6.0 0.00 0.00 0.00 75 1011.3
20260507205404 55 240 0.0 6.0 0.00 0.00 0.00 75 1011.5
20260507204205 56 107 2.0 4.0 0.00 0.00 0.00 73 1011.4
20260507203904 55 97 0.0 4.0 0.00 0.00 0.00 74 1011.2
20260507203604 55 87 2.0 4.0 0.00 0.00 0.00 74 1011.2
20260507203305 55 94 2.0 4.0 0.00 0.00 0.00 74 1011.1
20260507202705 56 92 2.0 4.0 0.00 0.00 0.00 74 1011.1
20260507202404 56 236 2.0 4.0 0.00 0.00 0.00 74 1011.0
20260507202105 56 255 2.0 6.0 0.00 0.00 0.00 74 1011.1
20260507201804 55 239 2.0 6.0 0.00 0.00 0.00 73 1010.9
20260507201204 55 209 1.0 7.0 0.00 0.00 0.00 74 1010.8
20260507200905 55 209 2.0 7.0 0.00 0.00 0.00 74 1010.7
20260507200604 55 210 2.0 7.0 0.00 0.00 0.00 74 1010.7
20260507200304 55 202 5.0 7.0 0.00 0.00 0.00 74 1011.0
20260507195404 56 222 4.0 7.0 0.00 0.00 0.00 72 1010.6
20260507195104 56 221 4.0 7.0 0.00 0.00 0.00 72 1010.5
20260507194805 56 203 2.0 4.0 0.00 0.00 0.00 73 1010.4
20260507194505 56 210 3.0 4.0 0.00 0.00 0.00 73 1010.5
20260507194204 56 214 3.0 4.0 0.00 0.00 0.00 73 1010.3
20260507193605 57 221 2.0 4.0 0.00 0.00 0.00 71 1010.4
20260507193304 57 210 0.0 4.0 0.00 0.00 0.00 71 1010.2
20260507193005 57 215 2.0 6.0 0.00 0.00 0.00 70 1010.1
20260507192704 58 196 2.0 6.0 0.00 0.00 0.00 68 1010.1
20260507192404 58 225 2.0 6.0 0.00 0.00 0.00 67 1010.0
20260507192105 58 132 2.0 6.0 0.00 0.00 0.00 68 1010.0
20260507191505 59 98 0.0 4.0 0.00 0.00 0.00 68 1009.9
20260507191205 59 91 1.0 6.0 0.00 0.00 0.00 67 1010.1
20260507190905 59 83 1.0 6.0 0.00 0.00 0.00 67 1009.9
20260507185704 59 96 2.0 4.0 0.00 0.00 0.00 66 1009.7
20260507185104 60 74 2.0 4.0 0.00 0.00 0.00 65 1009.8
20260507184505 60 65 2.0 6.0 0.00 0.00 0.00 64 1009.8
20260507184205 60 61 2.0 6.0 0.00 0.00 0.00 64 1009.6
20260507183904 61 95 0.0 6.0 0.00 0.00 0.00 64 1009.7
20260507183604 61 104 2.0 6.0 0.00 0.00 0.00 63 1009.7
20260507183305 61 126 3.0 6.0 0.00 0.00 0.00 63 1009.5
20260507183005 61 115 2.0 4.0 0.00 0.00 0.00 63 1009.6
20260507182705 62 128 1.0 6.0 0.00 0.00 0.00 63 1009.7
20260507182104 62 106 1.0 6.0 0.00 0.00 0.00 62 1009.6
20260507181804 62 87 1.0 6.0 0.00 0.00 0.00 62 1009.6
20260507181505 62 90 1.0 7.0 0.00 0.00 0.00 61 1009.8
20260507180904 62 293 2.0 7.0 0.00 0.00 0.00 61 1009.6
20260507180305 63 35 2.0 7.0 0.00 0.00 0.00 61 1009.7
20260507180005 63 72 2.0 7.0 0.00 0.00 0.00 61 1009.6
20260507175704 63 72 2.0 7.0 0.00 0.00 0.00 61 1009.7
20260507175404 63 70 4.0 7.0 0.00 0.00 0.00 61 1009.8
20260507175105 63 77 2.0 4.0 0.00 0.00 0.00 61 1009.6
20260507174804 63 107 1.0 6.0 0.00 0.00 0.00 61 1009.7
20260507174505 63 104 1.0 6.0 0.00 0.00 0.00 61 1009.8
20260507174204 63 92 3.0 7.0 0.00 0.00 0.00 60 1009.8
20260507173904 63 89 2.0 7.0 0.00 0.00 0.00 60 1009.6
20260507173605 63 76 2.0 7.0 0.00 0.00 0.00 60 1009.6
20260507173304 64 92 3.0 7.0 0.00 0.00 0.00 59 1009.8
20260507173005 64 81 2.0 4.0 0.00 0.00 0.00 57 1009.7
20260507172704 64 90 2.0 4.0 0.00 0.00 0.00 58 1009.6
20260507172405 64 79 3.0 4.0 0.00 0.00 0.00 57 1009.8
20260507172104 65 81 0.0 6.0 0.00 0.00 0.00 56 1010.0
20260507171804 65 110 2.0 6.0 0.00 0.00 0.00 55 1009.7
20260507171505 65 94 2.0 6.0 0.00 0.00 0.00 55 1009.7
20260507171205 65 91 1.0 6.0 0.00 0.00 0.00 56 1009.6
20260507170904 65 77 2.0 6.0 0.00 0.00 0.00 55 1009.6
20260507170604 65 81 2.0 7.0 0.00 0.00 0.00 55 1009.7
20260507170305 65 76 2.0 7.0 0.00 0.00 0.00 53 1009.5
20260507170005 66 56 3.0 8.0 0.00 0.00 0.00 54 1009.5
20260507164805 67 61 2.0 6.0 0.00 0.00 0.00 52 1009.5
20260507164204 67 51 2.0 4.0 0.00 0.00 0.00 52 1009.6
20260507163904 68 44 1.0 4.0 0.00 0.00 0.00 52 1009.6
20260507163604 67 117 1.0 4.0 0.00 0.00 0.00 52 1009.8
20260507163304 67 229 0.0 4.0 0.00 0.00 0.00 51 1009.7
20260507163005 67 161 0.0 4.0 0.00 0.00 0.00 51 1009.7
20260507162704 67 128 0.0 4.0 0.00 0.00 0.00 51 1009.8
20260507162404 67 183 2.0 4.0 0.00 0.00 0.00 49 1009.7
20260507161804 69 194 1.0 6.0 0.00 0.00 0.00 47 1009.7
20260507161504 70 258 1.0 9.0 0.00 0.00 0.00 45 1009.7
20260507161204 70 295 2.0 9.0 0.00 0.00 0.00 46 1009.8
20260507160904 70 292 1.0 9.0 0.00 0.00 0.00 48 1009.8
20260507160604 69 291 4.0 9.0 0.00 0.00 0.00 47 1009.6
20260507160305 69 308 4.0 9.0 0.00 0.00 0.00 48 1009.6
20260507155404 69 134 2.0 11.0 0.00 0.00 0.00 49 1009.6
20260507155104 69 179 2.0 11.0 0.00 0.00 0.00 48 1009.9
20260507154804 68 189 6.0 11.0 0.00 0.00 0.00 50 1009.7
20260507154505 67 112 3.0 9.0 0.00 0.00 0.00 48 1009.6
20260507154205 68 155 2.0 9.0 0.00 0.00 0.00 48 1009.6
20260507153904 70 136 2.0 8.0 0.00 0.00 0.00 45 1009.5
20260507153604 70 164 3.0 8.0 0.00 0.00 0.00 44 1009.5
20260507153304 69 58 2.0 8.0 0.00 0.00 0.00 46 1009.6
20260507153005 70 317 2.0 7.0 0.00 0.00 0.00 43 1009.5
20260507152405 70 291 2.0 7.0 0.00 0.00 0.00 45 1009.6
20260507152104 69 263 3.0 11.0 0.00 0.00 0.00 46 1009.8
20260507151804 69 209 1.0 11.0 0.00 0.00 0.00 48 1009.7
20260507151505 69 199 5.0 11.0 0.00 0.00 0.00 48 1009.8
20260507151204 71 175 4.0 8.0 0.00 0.00 0.00 46 1009.7
20260507150604 70 234 1.0 11.0 0.00 0.00 0.00 41 1009.9
20260507150304 68 232 2.0 13.0 0.00 0.00 0.00 43 1009.8
20260507150005 67 222 4.0 15.0 0.00 0.00 0.00 43 1009.9
20260507145705 66 210 5.0 15.0 0.00 0.00 0.00 42 1010.0
20260507145404 69 210 5.0 15.0 0.00 0.00 0.00 43 1010.0
20260507145104 67 211 8.0 14.0 0.00 0.00 0.00 45 1010.0
20260507144804 67 225 7.0 15.0 0.00 0.00 0.00 43 1010.0
20260507144204 67 253 9.0 15.0 0.00 0.00 0.00 46 1010.1
20260507143604 69 239 5.0 14.0 0.00 0.00 0.00 47 1010.0
20260507143304 69 218 4.0 14.0 0.00 0.00 0.00 48 1010.4
20260507142705 67 216 6.0 14.0 0.00 0.00 0.00 44 1010.2
20260507142404 67 221 8.0 13.0 0.00 0.00 0.00 46 1010.1
20260507142104 68 246 4.0 11.0 0.00 0.00 0.00 46 1010.0
20260507141804 67 241 3.0 15.0 0.00 0.00 0.00 46 1010.1
20260507141504 67 243 4.0 16.0 0.00 0.00 0.00 46 1010.3
20260507140904 66 220 11.0 16.0 0.00 0.00 0.00 47 1010.5
20260507140604 66 225 10.0 15.0 0.00 0.00 0.00 46 1010.4
20260507140304 67 236 8.0 14.0 0.00 0.00 0.00 47 1010.3
20260507140006 68 259 7.0 14.0 0.00 0.00 0.00 45 1010.2
20260507135704 69 263 3.0 14.0 0.00 0.00 0.00 45 1010.3
20260507135404 68 247 8.0 14.0 0.00 0.00 0.00 45 1010.5
20260507134804 69 212 6.0 14.0 0.00 0.00 0.00 45 1010.3
20260507133904 67 229 4.0 14.0 0.00 0.00 0.00 46 1010.4
20260507133604 69 243 2.0 14.0 0.00 0.00 0.00 45 1010.3
20260507133304 68 240 3.0 14.0 0.00 0.00 0.00 45 1010.1
20260507133005 67 249 5.0 16.0 0.00 0.00 0.00 45 1010.3
20260507132704 67 247 4.0 16.0 0.00 0.00 0.00 45 1010.4
20260507132104 67 255 8.0 14.0 0.00 0.00 0.00 46 1010.4
20260507131804 66 241 6.0 14.0 0.00 0.00 0.00 50 1010.5
20260507131504 64 216 6.0 14.0 0.00 0.00 0.00 50 1010.6
20260507131204 65 214 3.0 11.0 0.00 0.00 0.00 49 1010.3
20260507130904 64 221 3.0 11.0 0.00 0.00 0.00 50 1010.7
20260507130604 65 229 4.0 11.0 0.00 0.00 0.00 48 1010.7
20260507130304 64 226 4.0 14.0 0.00 0.00 0.00 49 1010.7
20260507130005 65 217 6.0 14.0 0.00 0.00 0.00 49 1010.6
20260507125704 65 220 5.0 14.0 0.00 0.00 0.00 48 1010.7
20260507125404 64 217 5.0 14.0 0.00 0.00 0.00 50 1010.8
20260507125104 64 224 6.0 14.0 0.00 0.00 0.00 48 1010.8
20260507124804 65 230 6.0 14.0 0.00 0.00 0.00 46 1010.8
20260507124505 65 235 8.0 15.0 0.00 0.00 0.00 44 1010.8
20260507124204 66 232 9.0 15.0 0.00 0.00 0.00 45 1010.6
20260507123904 67 237 8.0 15.0 0.00 0.00 0.00 45 1010.7
20260507123604 67 225 9.0 27.0 0.00 0.00 0.00 45 1010.7
20260507123304 66 200 10.0 27.0 0.00 0.00 0.00 45 1010.8
20260507123005 68 172 8.0 27.0 0.00 0.00 0.00 43 1010.7
20260507122705 68 167 11.0 27.0 0.00 0.00 0.00 40 1010.8
20260507122104 67 182 11.0 20.0 0.00 0.00 0.00 43 1010.9
20260507121804 70 197 6.0 15.0 0.00 0.00 0.00 44 1010.8
20260507121504 67 186 10.0 22.0 0.00 0.00 0.00 43 1010.8
20260507121205 67 191 9.0 22.0 0.00 0.00 0.00 46 1011.0
20260507120904 67 183 6.0 22.0 0.00 0.00 0.00 44 1011.0
20260507120604 68 173 13.0 22.0 0.00 0.00 0.00 45 1011.0
20260507120304 68 172 4.0 18.0 0.00 0.00 0.00 43 1010.8
20260507120004 67 175 10.0 18.0 0.00 0.00 0.00 43 1011.1
20260507115404 66 191 10.0 17.0 0.00 0.00 0.00 44 1011.1
20260507115104 66 213 8.0 17.0 0.00 0.00 0.00 46 1011.4
20260507114804 66 222 10.0 15.0 0.00 0.00 0.00 45 1011.2
20260507114505 65 218 6.0 15.0 0.00 0.00 0.00 48 1011.2
20260507114204 65 187 3.0 15.0 0.00 0.00 0.00 48 1011.2
20260507113904 64 181 4.0 15.0 0.00 0.00 0.00 47 1011.3
20260507113604 66 177 11.0 21.0 0.00 0.00 0.00 45 1011.3
20260507113304 66 177 7.0 23.0 0.00 0.00 0.00 46 1011.1
20260507112704 65 174 9.0 23.0 0.00 0.00 0.00 46 1011.3
20260507112404 67 172 8.0 21.0 0.00 0.00 0.00 49 1011.2
20260507112104 66 166 13.0 21.0 0.00 0.00 0.00 46 1011.0
20260507111804 67 134 4.0 18.0 0.00 0.00 0.00 48 1011.2
20260507111506 66 135 4.0 9.0 0.00 0.00 0.00 48 1011.0